{"data":{"norad_id":66828,"intl_designator":"2025-280H","name":"STARLINK-35982","alt_names":[],"object_type":"PAYLOAD","status":"ACTIVE","operator":null,"country":"US","launch_date":"2025-12-02","launch_site_code":"AFWTR","launch_vehicle":null,"mission":null,"orbit_class":"UNKNOWN","rcs_meters":null,"size_class":null,"mass_kg":null,"dimensions":null,"purposes":["comms"],"wikipedia_slug":null,"has_3d_model":false,"image_url":null,"decayed_at":null,"tle_current":{"epoch":"2026-09-20T13:34:56.758080Z","epoch_age_seconds":79167,"freshness":"FRESH","line1":"1 66828U 25280H   26263.56593470  .00004331  00000+0  37045-3 0  9997","line2":"2 66828  70.0006 203.2155 0003187 260.9659  99.1139 14.98343301 45264","mean_motion":14.98343301,"eccentricity":0.0003187,"inclination_deg":70.0006,"raan_deg":203.2155,"arg_perigee_deg":260.9659,"mean_anomaly_deg":99.1139,"bstar":0.00037045,"rev_number":4526,"period_min":96.106145970616,"perigee_km":569.79974563781,"apogee_km":574.22977236899,"semimajor_km":6950.1517590034,"source":"CELESTRAK","updated_at":"2026-09-21T09:00:36.020957Z"}}}